Year,Month,Day,Hour,Minute,Value (Times are PST for temperature in C)
2018,07,03,00,00,14.00
2018,07,03,00,01,14.00
2018,07,03,00,02,14.00
2018,07,03,00,03,14.00
2018,07,03,00,04,14.00
2018,07,03,00,05,14.00
2018,07,03,00,06,13.90
2018,07,03,00,07,13.90
2018,07,03,00,08,13.90
2018,07,03,00,09,13.90
2018,07,03,00,10,13.80
2018,07,03,00,11,13.80
2018,07,03,00,12,13.80
2018,07,03,00,13,13.80
2018,07,03,00,14,13.80
2018,07,03,00,15,13.80
2018,07,03,00,16,13.80
2018,07,03,00,17,13.80
2018,07,03,00,18,13.70
2018,07,03,00,19,13.70
2018,07,03,00,20,13.70
2018,07,03,00,21,13.70
2018,07,03,00,22,13.60
2018,07,03,00,23,13.60
2018,07,03,00,24,13.60
2018,07,03,00,25,13.60
2018,07,03,00,26,13.50
2018,07,03,00,27,13.50
2018,07,03,00,28,13.50
2018,07,03,00,29,13.40
2018,07,03,00,30,13.40
2018,07,03,00,31,13.40
2018,07,03,00,32,13.40
2018,07,03,00,33,13.30
2018,07,03,00,34,13.30
2018,07,03,00,35,13.30
2018,07,03,00,36,13.30
2018,07,03,00,37,13.30
2018,07,03,00,38,13.20
2018,07,03,00,39,13.20
2018,07,03,00,40,13.20
2018,07,03,00,41,13.20
2018,07,03,00,42,13.20
2018,07,03,00,43,13.10
2018,07,03,00,44,13.10
2018,07,03,00,45,13.10
2018,07,03,00,46,13.10
2018,07,03,00,47,13.00
2018,07,03,00,48,13.00
2018,07,03,00,49,13.00
2018,07,03,00,50,12.90
2018,07,03,00,51,12.90
2018,07,03,00,52,12.90
2018,07,03,00,53,12.80
2018,07,03,00,54,12.80
2018,07,03,00,55,12.80
2018,07,03,00,56,12.80
2018,07,03,00,57,12.70
2018,07,03,00,58,12.70
2018,07,03,00,59,12.70
2018,07,03,01,00,12.70
2018,07,03,01,01,12.70
2018,07,03,01,02,12.70
2018,07,03,01,03,12.70
2018,07,03,01,04,12.70
2018,07,03,01,05,12.70
2018,07,03,01,06,12.70
2018,07,03,01,07,12.70
2018,07,03,01,08,12.70
2018,07,03,01,09,12.70
2018,07,03,01,10,12.70
2018,07,03,01,11,12.70
2018,07,03,01,12,12.60
2018,07,03,01,13,12.60
2018,07,03,01,14,12.60
2018,07,03,01,15,12.60
2018,07,03,01,16,12.60
2018,07,03,01,17,12.60
2018,07,03,01,18,12.70
2018,07,03,01,19,12.60
2018,07,03,01,20,12.60
2018,07,03,01,21,12.60
2018,07,03,01,22,12.60
2018,07,03,01,23,12.70
2018,07,03,01,24,12.70
2018,07,03,01,25,12.70
2018,07,03,01,26,12.70
2018,07,03,01,27,12.70
2018,07,03,01,28,12.70
2018,07,03,01,29,12.70
2018,07,03,01,30,12.80
2018,07,03,01,31,12.80
2018,07,03,01,32,12.80
2018,07,03,01,33,12.80
2018,07,03,01,34,12.80
2018,07,03,01,35,12.80
2018,07,03,01,36,12.80
2018,07,03,01,37,12.80
2018,07,03,01,38,12.80
2018,07,03,01,39,12.80
2018,07,03,01,40,12.80
2018,07,03,01,41,12.80
2018,07,03,01,42,12.80
2018,07,03,01,43,12.80
2018,07,03,01,44,12.80
2018,07,03,01,45,12.80
2018,07,03,01,46,12.80
2018,07,03,01,47,12.80
2018,07,03,01,48,12.80
2018,07,03,01,49,12.80
2018,07,03,01,50,12.80
2018,07,03,01,51,12.80
2018,07,03,01,52,12.80
2018,07,03,01,53,12.70
2018,07,03,01,54,12.70
2018,07,03,01,55,12.70
2018,07,03,01,56,12.70
2018,07,03,01,57,12.70
2018,07,03,01,58,12.70
2018,07,03,01,59,12.70
2018,07,03,02,00,12.70
2018,07,03,02,01,12.70
2018,07,03,02,02,12.70
2018,07,03,02,03,12.70
2018,07,03,02,04,12.70
2018,07,03,02,05,12.70
2018,07,03,02,06,12.70
2018,07,03,02,07,12.70
2018,07,03,02,08,12.70
2018,07,03,02,09,12.70
2018,07,03,02,10,12.70
2018,07,03,02,11,12.80
2018,07,03,02,12,12.80
2018,07,03,02,13,12.80
2018,07,03,02,14,12.80
2018,07,03,02,15,12.80
2018,07,03,02,16,12.80
2018,07,03,02,17,12.70
2018,07,03,02,18,12.70
2018,07,03,02,19,12.70
2018,07,03,02,20,12.70
2018,07,03,02,21,12.70
2018,07,03,02,22,12.70
2018,07,03,02,23,12.70
2018,07,03,02,24,12.70
2018,07,03,02,25,12.70
2018,07,03,02,26,12.70
2018,07,03,02,27,12.60
2018,07,03,02,28,12.60
2018,07,03,02,29,12.60
2018,07,03,02,30,12.60
2018,07,03,02,31,12.60
2018,07,03,02,32,12.60
2018,07,03,02,33,12.60
2018,07,03,02,34,12.60
2018,07,03,02,35,12.60
2018,07,03,02,36,12.50
2018,07,03,02,37,12.50
2018,07,03,02,38,12.50
2018,07,03,02,39,12.50
2018,07,03,02,40,12.50
2018,07,03,02,41,12.50
2018,07,03,02,42,12.40
2018,07,03,02,43,12.40
2018,07,03,02,44,12.40
2018,07,03,02,45,12.40
2018,07,03,02,46,12.40
2018,07,03,02,47,12.40
2018,07,03,02,48,12.40
2018,07,03,02,49,12.40
2018,07,03,02,50,12.40
2018,07,03,02,51,12.40
2018,07,03,02,52,12.40
2018,07,03,02,53,12.40
2018,07,03,02,54,12.40
2018,07,03,02,55,12.40
2018,07,03,02,56,12.40
2018,07,03,02,57,12.40
2018,07,03,02,58,12.40
2018,07,03,02,59,12.40
2018,07,03,03,00,12.40
2018,07,03,03,01,12.40
2018,07,03,03,02,12.30
2018,07,03,03,03,12.30
2018,07,03,03,04,12.30
2018,07,03,03,05,12.30
2018,07,03,03,06,12.30
2018,07,03,03,07,12.30
2018,07,03,03,08,12.30
2018,07,03,03,09,12.30
2018,07,03,03,10,12.30
2018,07,03,03,11,12.30
2018,07,03,03,12,12.30
2018,07,03,03,13,12.30
2018,07,03,03,14,12.30
2018,07,03,03,15,12.20
2018,07,03,03,16,12.20
2018,07,03,03,17,12.20
2018,07,03,03,18,12.20
2018,07,03,03,19,12.20
2018,07,03,03,20,12.20
2018,07,03,03,21,12.20
2018,07,03,03,22,12.20
2018,07,03,03,23,12.20
2018,07,03,03,24,12.10
2018,07,03,03,25,12.20
2018,07,03,03,26,12.20
2018,07,03,03,27,12.20
2018,07,03,03,28,12.20
2018,07,03,03,29,12.10
2018,07,03,03,30,12.10
2018,07,03,03,31,12.10
2018,07,03,03,32,12.10
2018,07,03,03,33,12.10
2018,07,03,03,34,12.10
2018,07,03,03,35,12.10
2018,07,03,03,36,12.10
2018,07,03,03,37,12.10
2018,07,03,03,38,12.10
2018,07,03,03,39,12.10
2018,07,03,03,40,12.10
2018,07,03,03,41,12.10
2018,07,03,03,42,12.10
2018,07,03,03,43,12.10
2018,07,03,03,44,12.10
2018,07,03,03,45,12.00
2018,07,03,03,46,12.00
2018,07,03,03,47,12.00
2018,07,03,03,48,12.00
2018,07,03,03,49,12.00
2018,07,03,03,50,12.00
2018,07,03,03,51,11.90
2018,07,03,03,52,11.90
2018,07,03,03,53,11.90
2018,07,03,03,54,11.90
2018,07,03,03,55,11.90
2018,07,03,03,56,11.90
2018,07,03,03,57,11.90
2018,07,03,03,58,11.80
2018,07,03,03,59,11.80
2018,07,03,04,00,11.80
2018,07,03,04,01,11.80
2018,07,03,04,02,11.80
2018,07,03,04,03,11.80
2018,07,03,04,04,11.80
2018,07,03,04,05,11.80
2018,07,03,04,06,11.80
2018,07,03,04,07,11.70
2018,07,03,04,08,11.70
2018,07,03,04,09,11.70
2018,07,03,04,10,11.70
2018,07,03,04,11,11.70
2018,07,03,04,12,11.70
2018,07,03,04,13,11.70
2018,07,03,04,14,11.70
2018,07,03,04,15,11.60
2018,07,03,04,16,11.60
2018,07,03,04,17,11.60
2018,07,03,04,18,11.60
2018,07,03,04,19,11.60
2018,07,03,04,20,11.60
2018,07,03,04,21,11.60
2018,07,03,04,22,11.60
2018,07,03,04,23,11.60
2018,07,03,04,24,11.60
2018,07,03,04,25,11.60
2018,07,03,04,26,11.60
2018,07,03,04,27,11.60
2018,07,03,04,28,11.60
2018,07,03,04,29,11.60
2018,07,03,04,30,11.50
2018,07,03,04,31,11.50
2018,07,03,04,32,11.50
2018,07,03,04,33,11.50
2018,07,03,04,34,11.50
2018,07,03,04,35,11.50
2018,07,03,04,36,11.50
2018,07,03,04,37,11.50
2018,07,03,04,38,11.40
2018,07,03,04,39,11.40
2018,07,03,04,40,11.40
2018,07,03,04,41,11.40
2018,07,03,04,42,11.40
2018,07,03,04,43,11.40
2018,07,03,04,44,11.40
2018,07,03,04,45,11.30
2018,07,03,04,46,11.30
2018,07,03,04,47,11.30
2018,07,03,04,48,11.30
2018,07,03,04,49,11.30
2018,07,03,04,50,11.30
2018,07,03,04,51,11.30
2018,07,03,04,52,11.30
2018,07,03,04,53,11.30
2018,07,03,04,54,11.30
2018,07,03,04,55,11.30
2018,07,03,04,56,11.20
2018,07,03,04,57,11.20
2018,07,03,04,58,11.20
2018,07,03,04,59,11.20
2018,07,03,05,00,11.20
2018,07,03,05,01,11.10
2018,07,03,05,02,11.10
2018,07,03,05,03,11.10
2018,07,03,05,04,11.10
2018,07,03,05,05,11.10
2018,07,03,05,06,11.10
2018,07,03,05,07,11.00
2018,07,03,05,08,11.00
2018,07,03,05,09,11.00
2018,07,03,05,10,11.00
2018,07,03,05,11,10.90
2018,07,03,05,12,10.90
2018,07,03,05,13,10.90
2018,07,03,05,14,10.90
2018,07,03,05,15,10.90
2018,07,03,05,16,10.90
2018,07,03,05,17,10.80
2018,07,03,05,18,10.80
2018,07,03,05,19,10.80
2018,07,03,05,20,10.80
2018,07,03,05,21,10.80
2018,07,03,05,22,10.80
2018,07,03,05,23,10.80
2018,07,03,05,24,10.80
2018,07,03,05,25,10.70
2018,07,03,05,26,10.70
2018,07,03,05,27,10.70
2018,07,03,05,28,10.70
2018,07,03,05,29,10.70
2018,07,03,05,30,10.70
2018,07,03,05,31,10.70
2018,07,03,05,32,10.70
2018,07,03,05,33,10.60
2018,07,03,05,34,10.60
2018,07,03,05,35,10.60
2018,07,03,05,36,10.60
2018,07,03,05,37,10.60
2018,07,03,05,38,10.50
2018,07,03,05,39,10.50
2018,07,03,05,40,10.50
2018,07,03,05,41,10.50
2018,07,03,05,42,10.40
2018,07,03,05,43,10.40
2018,07,03,05,44,10.40
2018,07,03,05,45,10.30
2018,07,03,05,46,10.30
2018,07,03,05,47,10.30
2018,07,03,05,48,10.30
2018,07,03,05,49,10.30
2018,07,03,05,50,10.20
2018,07,03,05,51,10.20
2018,07,03,05,52,10.20
2018,07,03,05,53,10.20
2018,07,03,05,54,10.20
2018,07,03,05,55,10.20
2018,07,03,05,56,10.10
2018,07,03,05,57,10.10
2018,07,03,05,58,10.10
2018,07,03,05,59,10.10
2018,07,03,06,00,10.10
2018,07,03,06,01,10.10
2018,07,03,06,02,10.10
2018,07,03,06,03,10.10
2018,07,03,06,04,10.10
2018,07,03,06,05,10.10
2018,07,03,06,06,10.10
2018,07,03,06,07,10.10
2018,07,03,06,08,10.10
2018,07,03,06,09,10.10
2018,07,03,06,10,10.10
2018,07,03,06,11,10.10
2018,07,03,06,12,10.10
2018,07,03,06,13,10.10
2018,07,03,06,14,10.10
2018,07,03,06,15,10.10
2018,07,03,06,16,10.20
2018,07,03,06,17,10.20
2018,07,03,06,18,10.20
2018,07,03,06,19,10.20
2018,07,03,06,20,10.20
2018,07,03,06,21,10.20
2018,07,03,06,22,10.20
2018,07,03,06,23,10.20
2018,07,03,06,24,10.20
2018,07,03,06,25,10.30
2018,07,03,06,26,10.30
2018,07,03,06,27,10.30
2018,07,03,06,28,10.40
2018,07,03,06,29,10.40
2018,07,03,06,30,10.50
2018,07,03,06,31,10.60
2018,07,03,06,32,10.60
2018,07,03,06,33,10.70
2018,07,03,06,34,10.80
2018,07,03,06,35,10.80
2018,07,03,06,36,10.90
2018,07,03,06,37,10.90
2018,07,03,06,38,11.00
2018,07,03,06,39,11.00
2018,07,03,06,40,11.10
2018,07,03,06,41,11.10
2018,07,03,06,42,11.10
2018,07,03,06,43,11.20
2018,07,03,06,44,11.20
2018,07,03,06,45,11.20
2018,07,03,06,46,11.30
2018,07,03,06,47,11.30
2018,07,03,06,48,11.30
2018,07,03,06,49,11.40
2018,07,03,06,50,11.40
2018,07,03,06,51,11.50
2018,07,03,06,52,11.50
2018,07,03,06,53,11.60
2018,07,03,06,54,11.60
2018,07,03,06,55,11.70
2018,07,03,06,56,11.80
2018,07,03,06,57,11.80
2018,07,03,06,58,11.80
2018,07,03,06,59,11.90
2018,07,03,07,00,11.90
2018,07,03,07,01,11.90
2018,07,03,07,02,12.00
2018,07,03,07,03,12.00
2018,07,03,07,04,12.00
2018,07,03,07,05,12.10
2018,07,03,07,06,12.10
2018,07,03,07,07,12.10
2018,07,03,07,08,12.10
2018,07,03,07,09,12.10
2018,07,03,07,10,12.20
2018,07,03,07,11,12.20
2018,07,03,07,12,12.20
2018,07,03,07,13,12.20
2018,07,03,07,14,12.20
2018,07,03,07,15,12.20
2018,07,03,07,16,12.20
2018,07,03,07,17,12.20
2018,07,03,07,18,12.20
2018,07,03,07,19,12.20
2018,07,03,07,20,12.20
2018,07,03,07,21,12.20
2018,07,03,07,22,12.20
2018,07,03,07,23,12.20
2018,07,03,07,24,12.30
2018,07,03,07,25,12.30
2018,07,03,07,26,12.30
2018,07,03,07,27,12.30
2018,07,03,07,28,12.30
2018,07,03,07,29,12.40
2018,07,03,07,30,12.40
2018,07,03,07,31,12.40
2018,07,03,07,32,12.40
2018,07,03,07,33,12.40
2018,07,03,07,34,12.50
2018,07,03,07,35,12.50
2018,07,03,07,36,12.60
2018,07,03,07,37,12.60
2018,07,03,07,38,12.60
2018,07,03,07,39,12.70
2018,07,03,07,40,12.70
2018,07,03,07,41,12.70
2018,07,03,07,42,12.80
2018,07,03,07,43,12.80
2018,07,03,07,44,12.90
2018,07,03,07,45,12.90
2018,07,03,07,46,12.90
2018,07,03,07,47,12.90
2018,07,03,07,48,13.00
2018,07,03,07,49,13.00
2018,07,03,07,50,13.10
2018,07,03,07,51,13.10
2018,07,03,07,52,13.20
2018,07,03,07,53,13.20
2018,07,03,07,54,13.20
2018,07,03,07,55,13.30
2018,07,03,07,56,13.30
2018,07,03,07,57,13.30
2018,07,03,07,58,13.40
2018,07,03,07,59,13.40
2018,07,03,08,00,13.40
2018,07,03,08,01,13.40
2018,07,03,08,02,13.50
2018,07,03,08,03,13.50
2018,07,03,08,04,13.50
2018,07,03,08,05,13.60
2018,07,03,08,06,13.60
2018,07,03,08,07,13.70
2018,07,03,08,08,13.70
2018,07,03,08,09,13.70
2018,07,03,08,10,13.80
2018,07,03,08,11,13.80
2018,07,03,08,12,13.80
2018,07,03,08,13,13.90
2018,07,03,08,14,13.90
2018,07,03,08,15,13.90
2018,07,03,08,16,13.90
2018,07,03,08,17,13.90
2018,07,03,08,18,14.00
2018,07,03,08,19,14.00
2018,07,03,08,20,14.10
2018,07,03,08,21,14.10
2018,07,03,08,22,14.20
2018,07,03,08,23,14.20
2018,07,03,08,24,14.20
2018,07,03,08,25,14.20
2018,07,03,08,26,14.20
2018,07,03,08,27,14.30
2018,07,03,08,28,14.30
2018,07,03,08,29,14.30
2018,07,03,08,30,14.30
2018,07,03,08,31,14.40
2018,07,03,08,32,14.40
2018,07,03,08,33,14.40
2018,07,03,08,34,14.50
2018,07,03,08,35,14.60
2018,07,03,08,36,14.60
2018,07,03,08,37,14.60
2018,07,03,08,38,14.70
2018,07,03,08,39,14.70
2018,07,03,08,40,14.70
2018,07,03,08,41,14.70
2018,07,03,08,42,14.80
2018,07,03,08,43,14.80
2018,07,03,08,44,14.90
2018,07,03,08,45,14.90
2018,07,03,08,46,14.90
2018,07,03,08,47,14.90
2018,07,03,08,48,14.90
2018,07,03,08,49,14.90
2018,07,03,08,50,14.80
2018,07,03,08,51,14.80
2018,07,03,08,52,14.80
2018,07,03,08,53,14.80
2018,07,03,08,54,14.80
2018,07,03,08,55,14.80
2018,07,03,08,56,14.80
2018,07,03,08,57,14.80
2018,07,03,08,58,14.80
2018,07,03,08,59,14.80
2018,07,03,09,00,14.80
2018,07,03,09,01,14.90
2018,07,03,09,02,14.90
2018,07,03,09,03,14.90
2018,07,03,09,04,14.90
2018,07,03,09,05,14.90
2018,07,03,09,06,14.90
2018,07,03,09,07,14.80
2018,07,03,09,08,14.80
2018,07,03,09,09,14.80
2018,07,03,09,10,14.80
2018,07,03,09,11,14.80
2018,07,03,09,12,14.80
2018,07,03,09,13,14.90
2018,07,03,09,14,14.90
2018,07,03,09,15,14.90
2018,07,03,09,16,15.00
2018,07,03,09,17,15.00
2018,07,03,09,18,15.10
2018,07,03,09,19,15.10
2018,07,03,09,20,15.10
2018,07,03,09,21,15.20
2018,07,03,09,22,15.30
2018,07,03,09,23,15.30
2018,07,03,09,24,15.30
2018,07,03,09,25,15.30
2018,07,03,09,26,15.30
2018,07,03,09,27,15.30
2018,07,03,09,28,15.30
2018,07,03,09,29,15.30
2018,07,03,09,30,15.30
2018,07,03,09,31,15.30
2018,07,03,09,32,15.30
2018,07,03,09,33,15.30
2018,07,03,09,34,15.30
2018,07,03,09,35,15.30
2018,07,03,09,36,15.30
2018,07,03,09,37,15.30
2018,07,03,09,38,15.30
2018,07,03,09,39,15.30
2018,07,03,09,40,15.40
2018,07,03,09,41,15.40
2018,07,03,09,42,15.40
2018,07,03,09,43,15.30
2018,07,03,09,44,15.30
2018,07,03,09,45,15.30
2018,07,03,09,46,15.40
2018,07,03,09,47,15.50
2018,07,03,09,48,15.50
2018,07,03,09,49,15.60
2018,07,03,09,50,15.70
2018,07,03,09,51,15.70
2018,07,03,09,52,15.70
2018,07,03,09,53,15.70
2018,07,03,09,54,15.70
2018,07,03,09,55,15.80
2018,07,03,09,56,15.80
2018,07,03,09,57,15.80
2018,07,03,09,58,15.80
2018,07,03,09,59,15.80
2018,07,03,10,00,15.90
2018,07,03,10,01,15.90
2018,07,03,10,02,15.90
2018,07,03,10,03,15.90
2018,07,03,10,04,15.90
2018,07,03,10,05,15.90
2018,07,03,10,06,15.80
2018,07,03,10,07,15.80
2018,07,03,10,08,15.90
2018,07,03,10,09,15.90
2018,07,03,10,10,16.00
2018,07,03,10,11,16.00
2018,07,03,10,12,16.00
2018,07,03,10,13,16.10
2018,07,03,10,14,16.10
2018,07,03,10,15,16.20
2018,07,03,10,16,16.20
2018,07,03,10,17,16.20
2018,07,03,10,18,16.20
2018,07,03,10,19,16.30
2018,07,03,10,20,16.30
2018,07,03,10,21,16.30
2018,07,03,10,22,16.40
2018,07,03,10,23,16.40
2018,07,03,10,24,16.40
2018,07,03,10,25,16.40
2018,07,03,10,26,16.40
2018,07,03,10,27,16.30
2018,07,03,10,28,16.30
2018,07,03,10,29,16.40
2018,07,03,10,30,16.40
2018,07,03,10,31,16.50
2018,07,03,10,32,16.50
2018,07,03,10,33,16.60
2018,07,03,10,34,16.60
2018,07,03,10,35,16.60
2018,07,03,10,36,16.60
2018,07,03,10,37,16.60
2018,07,03,10,38,16.50
2018,07,03,10,39,16.50
2018,07,03,10,40,16.40
2018,07,03,10,41,16.40
2018,07,03,10,42,16.40
2018,07,03,10,43,16.40
2018,07,03,10,44,16.40
2018,07,03,10,45,16.40
2018,07,03,10,46,16.50
2018,07,03,10,47,16.60
2018,07,03,10,48,16.70
2018,07,03,10,49,16.80
2018,07,03,10,50,16.80
2018,07,03,10,51,16.90
2018,07,03,10,52,16.90
2018,07,03,10,53,16.90
2018,07,03,10,54,16.90
2018,07,03,10,55,16.90
2018,07,03,10,56,17.00
2018,07,03,10,57,16.90
2018,07,03,10,58,17.00
2018,07,03,10,59,17.10
2018,07,03,11,00,17.10
2018,07,03,11,01,17.20
2018,07,03,11,02,17.10
2018,07,03,11,03,17.10
2018,07,03,11,04,17.00
2018,07,03,11,05,16.90
2018,07,03,11,06,16.90
2018,07,03,11,07,16.90
2018,07,03,11,08,16.90
2018,07,03,11,09,16.80
2018,07,03,11,10,16.90
2018,07,03,11,11,16.90
2018,07,03,11,12,16.90
2018,07,03,11,13,16.90
2018,07,03,11,14,16.90
2018,07,03,11,15,17.00
2018,07,03,11,16,17.10
2018,07,03,11,17,17.30
2018,07,03,11,18,17.40
2018,07,03,11,19,17.40
2018,07,03,11,20,17.40
2018,07,03,11,21,17.40
2018,07,03,11,22,17.40
2018,07,03,11,23,17.50
2018,07,03,11,24,17.50
2018,07,03,11,25,17.50
2018,07,03,11,26,17.60
2018,07,03,11,27,17.60
2018,07,03,11,28,17.60
2018,07,03,11,29,17.50
2018,07,03,11,30,17.50
2018,07,03,11,31,17.50
2018,07,03,11,32,17.50
2018,07,03,11,33,17.60
2018,07,03,11,34,17.60
2018,07,03,11,35,17.60
2018,07,03,11,36,17.60
2018,07,03,11,37,17.70
2018,07,03,11,38,17.70
2018,07,03,11,39,17.70
2018,07,03,11,40,17.80
2018,07,03,11,41,17.80
2018,07,03,11,42,17.70
2018,07,03,11,43,17.60
2018,07,03,11,44,17.50
2018,07,03,11,45,17.50
2018,07,03,11,46,17.50
2018,07,03,11,47,17.50
2018,07,03,11,48,17.50
2018,07,03,11,49,17.40
2018,07,03,11,50,17.40
2018,07,03,11,51,17.30
2018,07,03,11,52,17.20
2018,07,03,11,53,17.20
2018,07,03,11,54,17.20
2018,07,03,11,55,17.20
2018,07,03,11,56,17.20
2018,07,03,11,57,17.10
2018,07,03,11,58,17.10
2018,07,03,11,59,17.10
2018,07,03,12,00,17.00
2018,07,03,12,01,17.00
2018,07,03,12,02,16.90
2018,07,03,12,03,16.90
2018,07,03,12,04,16.90
2018,07,03,12,05,16.90
2018,07,03,12,06,17.00
2018,07,03,12,07,16.90
2018,07,03,12,08,16.90
2018,07,03,12,09,16.90
2018,07,03,12,10,17.00
2018,07,03,12,11,17.10
2018,07,03,12,12,17.10
2018,07,03,12,13,17.20
2018,07,03,12,14,17.30
2018,07,03,12,15,17.30
2018,07,03,12,16,17.30
2018,07,03,12,17,17.30
2018,07,03,12,18,17.30
2018,07,03,12,19,17.30
2018,07,03,12,20,17.30
2018,07,03,12,21,17.40
2018,07,03,12,22,17.50
2018,07,03,12,23,17.50
2018,07,03,12,24,17.50
2018,07,03,12,25,17.60
2018,07,03,12,26,17.70
2018,07,03,12,27,17.70
2018,07,03,12,28,17.60
2018,07,03,12,29,17.60
2018,07,03,12,30,17.70
2018,07,03,12,31,17.70
2018,07,03,12,32,17.70
2018,07,03,12,33,17.70
2018,07,03,12,34,17.70
2018,07,03,12,35,17.80
2018,07,03,12,36,17.90
2018,07,03,12,37,17.90
2018,07,03,12,38,18.00
2018,07,03,12,39,18.00
2018,07,03,12,40,18.00
2018,07,03,12,41,17.90
2018,07,03,12,42,17.90
2018,07,03,12,43,17.80
2018,07,03,12,44,17.80
2018,07,03,12,45,17.80
2018,07,03,12,46,17.70
2018,07,03,12,47,17.70
2018,07,03,12,48,17.70
2018,07,03,12,49,17.70
2018,07,03,12,50,17.70
2018,07,03,12,51,17.70
2018,07,03,12,52,17.70
2018,07,03,12,53,17.80
2018,07,03,12,54,17.80
2018,07,03,12,55,17.80
2018,07,03,12,56,17.90
2018,07,03,12,57,17.90
2018,07,03,12,58,17.90
2018,07,03,12,59,18.00
2018,07,03,13,00,18.00
2018,07,03,13,01,18.00
2018,07,03,13,02,18.00
2018,07,03,13,03,18.10
2018,07,03,13,04,18.20
2018,07,03,13,05,18.20
2018,07,03,13,06,18.30
2018,07,03,13,07,18.30
2018,07,03,13,08,18.40
2018,07,03,13,09,18.40
2018,07,03,13,10,18.40
2018,07,03,13,11,18.40
2018,07,03,13,12,18.30
2018,07,03,13,13,18.30
2018,07,03,13,14,18.20
2018,07,03,13,15,18.30
2018,07,03,13,16,18.30
2018,07,03,13,17,18.40
2018,07,03,13,18,18.40
2018,07,03,13,19,18.50
2018,07,03,13,20,18.50
2018,07,03,13,21,18.50
2018,07,03,13,22,18.50
2018,07,03,13,23,18.50
2018,07,03,13,24,18.40
2018,07,03,13,25,18.40
2018,07,03,13,26,18.40
2018,07,03,13,27,18.50
2018,07,03,13,28,18.60
2018,07,03,13,29,18.70
2018,07,03,13,30,18.70
2018,07,03,13,31,18.80
2018,07,03,13,32,18.80
2018,07,03,13,33,18.80
2018,07,03,13,34,18.80
2018,07,03,13,35,18.80
2018,07,03,13,36,18.80
2018,07,03,13,37,18.80
2018,07,03,13,38,18.80
2018,07,03,13,39,18.80
2018,07,03,13,40,18.80
2018,07,03,13,41,18.90
2018,07,03,13,42,18.90
2018,07,03,13,43,18.90
2018,07,03,13,44,18.90
2018,07,03,13,45,19.00
2018,07,03,13,46,19.00
2018,07,03,13,47,19.10
2018,07,03,13,48,19.00
2018,07,03,13,49,19.00
2018,07,03,13,50,19.00
2018,07,03,13,51,19.00
2018,07,03,13,52,19.00
2018,07,03,13,53,19.10
2018,07,03,13,54,19.10
2018,07,03,13,55,19.10
2018,07,03,13,56,19.20
2018,07,03,13,57,19.20
2018,07,03,13,58,19.30
2018,07,03,13,59,19.30
2018,07,03,14,00,19.30
2018,07,03,14,01,19.30
2018,07,03,14,02,19.30
2018,07,03,14,03,19.30
2018,07,03,14,04,19.30
2018,07,03,14,05,19.30
2018,07,03,14,06,19.30
2018,07,03,14,07,19.30
2018,07,03,14,08,19.30
2018,07,03,14,09,19.30
2018,07,03,14,10,19.20
2018,07,03,14,11,19.20
2018,07,03,14,12,19.20
2018,07,03,14,13,19.20
2018,07,03,14,14,19.20
2018,07,03,14,15,19.20
2018,07,03,14,16,19.20
2018,07,03,14,17,19.20
2018,07,03,14,18,19.30
2018,07,03,14,19,19.30
2018,07,03,14,20,19.30
2018,07,03,14,21,19.30
2018,07,03,14,22,19.30
2018,07,03,14,23,19.30
2018,07,03,14,24,19.40
2018,07,03,14,25,19.50
2018,07,03,14,26,19.50
2018,07,03,14,27,19.60
2018,07,03,14,28,19.60
2018,07,03,14,29,19.60
2018,07,03,14,30,19.70
2018,07,03,14,31,19.70
2018,07,03,14,32,19.80
2018,07,03,14,33,19.90
2018,07,03,14,34,19.90
2018,07,03,14,35,20.00
2018,07,03,14,36,20.00
2018,07,03,14,37,20.00
2018,07,03,14,38,20.10
2018,07,03,14,39,20.10
2018,07,03,14,40,20.10
2018,07,03,14,41,20.00
2018,07,03,14,42,20.00
2018,07,03,14,43,20.00
2018,07,03,14,44,20.00
2018,07,03,14,45,20.00
2018,07,03,14,46,20.00
2018,07,03,14,47,20.00
2018,07,03,14,48,19.90
2018,07,03,14,49,20.00
2018,07,03,14,50,20.00
2018,07,03,14,51,20.10
2018,07,03,14,52,20.10
2018,07,03,14,53,20.10
2018,07,03,14,54,20.10
2018,07,03,14,55,20.20
2018,07,03,14,56,20.20
2018,07,03,14,57,20.20
2018,07,03,14,58,20.20
2018,07,03,14,59,20.20
2018,07,03,15,00,20.20
2018,07,03,15,01,20.30
2018,07,03,15,02,20.30
2018,07,03,15,03,20.40
2018,07,03,15,04,20.40
2018,07,03,15,05,20.40
2018,07,03,15,06,20.30
2018,07,03,15,07,20.30
2018,07,03,15,08,20.20
2018,07,03,15,09,20.20
2018,07,03,15,10,20.20
2018,07,03,15,11,20.30
2018,07,03,15,12,20.30
2018,07,03,15,13,20.30
2018,07,03,15,14,20.40
2018,07,03,15,15,20.40
2018,07,03,15,16,20.50
2018,07,03,15,17,20.60
2018,07,03,15,18,20.60
2018,07,03,15,19,20.70
2018,07,03,15,20,20.70
2018,07,03,15,21,20.80
2018,07,03,15,22,20.80
2018,07,03,15,23,20.80
2018,07,03,15,24,20.80
2018,07,03,15,25,20.80
2018,07,03,15,26,20.70
2018,07,03,15,27,20.70
2018,07,03,15,28,20.70
2018,07,03,15,29,20.70
2018,07,03,15,30,20.70
2018,07,03,15,31,20.80
2018,07,03,15,32,20.80
2018,07,03,15,33,20.80
2018,07,03,15,34,20.90
2018,07,03,15,35,20.80
2018,07,03,15,36,20.80
2018,07,03,15,37,20.80
2018,07,03,15,38,20.80
2018,07,03,15,39,20.80
2018,07,03,15,40,20.80
2018,07,03,15,41,20.70
2018,07,03,15,42,20.70
2018,07,03,15,43,20.60
2018,07,03,15,44,20.60
2018,07,03,15,45,20.60
2018,07,03,15,46,20.60
2018,07,03,15,47,20.60
2018,07,03,15,48,20.60
2018,07,03,15,49,20.60
2018,07,03,15,50,20.60
2018,07,03,15,51,20.60
2018,07,03,15,52,20.70
2018,07,03,15,53,20.70
2018,07,03,15,54,20.70
2018,07,03,15,55,20.70
2018,07,03,15,56,20.70
2018,07,03,15,57,20.70
2018,07,03,15,58,20.70
2018,07,03,15,59,20.70
2018,07,03,16,00,20.70
2018,07,03,16,01,20.80
2018,07,03,16,02,20.80
2018,07,03,16,03,20.80
2018,07,03,16,04,20.80
2018,07,03,16,05,20.80
2018,07,03,16,06,20.80
2018,07,03,16,07,20.70
2018,07,03,16,08,20.60
2018,07,03,16,09,20.60
2018,07,03,16,10,20.60
2018,07,03,16,11,20.60
2018,07,03,16,12,20.60
2018,07,03,16,13,20.70
2018,07,03,16,14,20.70
2018,07,03,16,15,20.70
2018,07,03,16,16,20.70
2018,07,03,16,17,20.70
2018,07,03,16,18,20.70
2018,07,03,16,19,20.70
2018,07,03,16,20,20.60
2018,07,03,16,21,20.60
2018,07,03,16,22,20.60
2018,07,03,16,23,20.60
2018,07,03,16,24,20.60
2018,07,03,16,25,20.60
2018,07,03,16,26,20.60
2018,07,03,16,27,20.60
2018,07,03,16,28,20.60
2018,07,03,16,29,20.60
2018,07,03,16,30,20.70
2018,07,03,16,31,20.80
2018,07,03,16,32,20.90
2018,07,03,16,33,21.00
2018,07,03,16,34,21.00
2018,07,03,16,35,21.10
2018,07,03,16,36,21.10
2018,07,03,16,37,21.10
2018,07,03,16,38,21.10
2018,07,03,16,39,21.10
2018,07,03,16,40,21.10
2018,07,03,16,41,21.20
2018,07,03,16,42,21.20
2018,07,03,16,43,21.20
2018,07,03,16,44,21.20
2018,07,03,16,45,21.20
2018,07,03,16,46,21.20
2018,07,03,16,47,21.10
2018,07,03,16,48,21.00
2018,07,03,16,49,20.90
2018,07,03,16,50,20.90
2018,07,03,16,51,20.90
2018,07,03,16,52,20.90
2018,07,03,16,53,21.00
2018,07,03,16,54,21.10
2018,07,03,16,55,21.10
2018,07,03,16,56,21.10
2018,07,03,16,57,21.10
2018,07,03,16,58,21.00
2018,07,03,16,59,21.00
2018,07,03,17,00,21.00
2018,07,03,17,01,21.00
2018,07,03,17,02,20.90
2018,07,03,17,03,20.90
2018,07,03,17,04,20.90
2018,07,03,17,05,20.80
2018,07,03,17,06,20.80
2018,07,03,17,07,20.80
2018,07,03,17,08,20.70
2018,07,03,17,09,20.60
2018,07,03,17,10,20.60
2018,07,03,17,11,20.50
2018,07,03,17,12,20.50
2018,07,03,17,13,20.40
2018,07,03,17,14,20.30
2018,07,03,17,15,20.20
2018,07,03,17,16,20.20
2018,07,03,17,17,20.20
2018,07,03,17,18,20.20
2018,07,03,17,19,20.20